| time (UTC) | temp F | wind direction | speed knots | gust knots | rain 1hr in | rain 24hr in | rain mn in | humidity % | barometer mb |
| 20260902074556 | 74 | 0.0 | 0.0 | 0.00 | 0.00 | 0.00 | 91 | 1017.0 | |
| 20260902073016 | 74 | 0.0 | 0.0 | 0.00 | 0.00 | 0.00 | 91 | 1017.0 | |
| 20260902071516 | 74 | 0.0 | 0.0 | 0.00 | 0.00 | 0.00 | 90 | 1017.1 | |
| 20260902070016 | 75 | 0.0 | 0.0 | 0.00 | 0.00 | 0.00 | 90 | 1017.0 | |
| 20260902064536 | 75 | 0.0 | 0.0 | 0.00 | 0.00 | 0.00 | 89 | 1017.0 | |
| 20260902063016 | 75 | 0.0 | 0.0 | 0.00 | 0.00 | 0.00 | 89 | 1016.8 | |
| 20260902061516 | 75 | 0.0 | 0.9 | 0.00 | 0.00 | 0.00 | 89 | 1016.9 | |
| 20260902060036 | 76 | 0.0 | 0.9 | 0.00 | 0.00 | 0.00 | 89 | 1016.8 | |
| 20260902054515 | 76 | 0.0 | 0.0 | 0.00 | 0.00 | 0.00 | 89 | 1016.6 | |
| 20260902053016 | 76 | 0.0 | 0.0 | 0.00 | 0.00 | 0.00 | 89 | 1016.7 | |
| 20260902051536 | 76 | 0.0 | 0.9 | 0.00 | 0.00 | 0.00 | 89 | 1016.7 | |
| 20260902050016 | 77 | 0.0 | 0.0 | 0.00 | 0.00 | 0.00 | 89 | 1017.0 | |
| 20260902044515 | 77 | 0.0 | 0.9 | 0.00 | 0.00 | 0.00 | 89 | 1017.0 | |
| 20260902043016 | 77 | 0.0 | 0.9 | 0.00 | 0.00 | 0.00 | 88 | 1016.6 | |
| 20260902041515 | 77 | 0.0 | 0.0 | 0.00 | 0.00 | 0.00 | 87 | 1016.5 | |
| 20260902040015 | 78 | 0.0 | 0.0 | 0.00 | 0.00 | 0.00 | 87 | 1016.4 | |
| 20260902034516 | 78 | 0.0 | 0.0 | 0.00 | 0.00 | 0.00 | 87 | 1016.3 | |
| 20260902033016 | 78 | 0.0 | 0.0 | 0.00 | 0.00 | 0.00 | 87 | 1016.0 | |
| 20260902031516 | 78 | 0.0 | 0.0 | 0.00 | 0.00 | 0.00 | 85 | 1016.0 | |
| 20260902030036 | 79 | 0.0 | 0.0 | 0.00 | 0.00 | 0.00 | 84 | 1016.0 | |
| 20260902024536 | 79 | 0.0 | 0.0 | 0.00 | 0.00 | 0.00 | 84 | 1016.0 | |
| 20260902023016 | 80 | 0.0 | 0.0 | 0.00 | 0.00 | 0.00 | 84 | 1016.1 | |
| 20260902021516 | 80 | 0.0 | 0.0 | 0.00 | 0.00 | 0.00 | 84 | 1016.1 | |
| 20260902020016 | 80 | 0.0 | 0.0 | 0.00 | 0.00 | 0.00 | 83 | 1016.0 | |
| 20260902014516 | 81 | 0.0 | 0.0 | 0.00 | 0.00 | 0.00 | 83 | 1015.8 | |
| 20260902013036 | 81 | 0.0 | 0.0 | 0.00 | 0.00 | 0.00 | 83 | 1015.6 | |
| 20260902011516 | 82 | 0.0 | 0.0 | 0.00 | 0.00 | 0.00 | 82 | 1015.4 | |
| 20260902010016 | 82 | 0.0 | 0.0 | 0.00 | 0.00 | 0.00 | 82 | 1015.2 | |
| 20260902004556 | 83 | 0.0 | 0.0 | 0.00 | 0.00 | 0.00 | 80 | 1015.0 | |
| 20260902003016 | 84 | 0.0 | 0.0 | 0.00 | 0.00 | 0.00 | 80 | 1014.9 | |
| 20260902001516 | 85 | 0.0 | 0.0 | 0.00 | 0.00 | 0.00 | 78 | 1014.9 | |
| 20260902000016 | 85 | 0.0 | 0.0 | 0.00 | 0.00 | 0.00 | 77 | 1014.9 | |
| 20260901234536 | 86 | 0.0 | 0.0 | 0.00 | 0.00 | 0.00 | 76 | 1014.9 | |
| 20260901233056 | 87 | 0.0 | 0.0 | 0.00 | 0.00 | 0.00 | 73 | 1015.0 | |
| 20260901231536 | 88 | 0.0 | 0.0 | 0.00 | 0.00 | 0.00 | 71 | 1015.0 | |
| 20260901230016 | 89 | 0.0 | 0.0 | 0.00 | 0.00 | 0.00 | 70 | 1015.2 | |
| 20260901224515 | 89 | 0.0 | 0.0 | 0.00 | 0.00 | 0.00 | 67 | 1015.2 | |
| 20260901223016 | 90 | 0.0 | 0.0 | 0.00 | 0.00 | 0.00 | 64 | 1015.3 | |
| 20260901221516 | 90 | 0.0 | 0.0 | 0.00 | 0.00 | 0.00 | 63 | 1015.4 | |
| 20260901220016 | 91 | 0.0 | 0.0 | 0.00 | 0.00 | 0.00 | 62 | 1015.4 | |
| 20260901214515 | 91 | 0.0 | 0.0 | 0.00 | 0.00 | 0.00 | 62 | 1015.5 | |
| 20260901213015 | 91 | 0.0 | 0.9 | 0.00 | 0.00 | 0.00 | 59 | 1015.5 | |
| 20260901211515 | 92 | 0.0 | 1.7 | 0.00 | 0.00 | 0.00 | 58 | 1015.5 | |
| 20260901210015 | 92 | 0.0 | 1.7 | 0.00 | 0.00 | 0.00 | 58 | 1015.7 | |
| 20260901204515 | 92 | 0.0 | 1.7 | 0.00 | 0.00 | 0.00 | 55 | 1015.8 | |
| 20260901203015 | 93 | 315 | 0.9 | 2.6 | 0.00 | 0.00 | 0.00 | 54 | 1015.7 |
| 20260901201535 | 93 | 293 | 0.9 | 3.5 | 0.00 | 0.00 | 0.00 | 55 | 1016.0 |
| 20260901200035 | 93 | 338 | 0.9 | 5.2 | 0.00 | 0.00 | 0.00 | 55 | 1016.2 |
| 20260901194515 | 92 | 315 | 0.9 | 3.5 | 0.00 | 0.00 | 0.00 | 56 | 1016.3 |
| 20260901193015 | 92 | 293 | 0.9 | 3.5 | 0.00 | 0.00 | 0.00 | 56 | 1016.3 |
| 20260901191535 | 92 | 0.0 | 2.6 | 0.00 | 0.00 | 0.00 | 55 | 1016.4 | |
| 20260901190011 | 92 | 315 | 0.9 | 2.6 | 0.00 | 0.00 | 0.00 | 56 | 1016.6 |
| 20260901184515 | 92 | 315 | 0.9 | 2.6 | 0.00 | 0.00 | 0.00 | 57 | 1016.7 |
| 20260901183015 | 92 | 158 | 0.9 | 2.6 | 0.00 | 0.00 | 0.00 | 59 | 1016.8 |
| 20260901181517 | 91 | 0 | 0.9 | 2.6 | 0.00 | 0.00 | 0.00 | 57 | 1017.0 |
| 20260901180037 | 91 | 315 | 0.9 | 3.5 | 0.00 | 0.00 | 0.00 | 55 | 1016.7 |
| 20260901174517 | 91 | 270 | 0.9 | 4.3 | 0.00 | 0.00 | 0.00 | 56 | 1016.7 |
| 20260901173017 | 91 | 315 | 0.9 | 2.6 | 0.00 | 0.00 | 0.00 | 55 | 1016.7 |
| 20260901171517 | 91 | 315 | 0.9 | 3.5 | 0.00 | 0.00 | 0.00 | 57 | 1016.8 |
| 20260901170017 | 91 | 248 | 0.9 | 3.5 | 0.00 | 0.00 | 0.00 | 60 | 1016.9 |
| 20260901164517 | 91 | 315 | 0.9 | 3.5 | 0.00 | 0.00 | 0.00 | 60 | 1017.1 |
| 20260901163017 | 91 | 315 | 0.9 | 2.6 | 0.00 | 0.00 | 0.00 | 60 | 1017.4 |
| 20260901161517 | 91 | 315 | 0.9 | 3.5 | 0.00 | 0.00 | 0.00 | 63 | 1017.6 |
| 20260901160017 | 91 | 338 | 0.9 | 6.1 | 0.00 | 0.00 | 0.00 | 64 | 1017.8 |
| 20260901154517 | 90 | 315 | 0.9 | 4.3 | 0.00 | 0.00 | 0.00 | 65 | 1017.8 |
| 20260901153017 | 89 | 315 | 0.9 | 3.5 | 0.00 | 0.00 | 0.00 | 67 | 1018.0 |
| 20260901151517 | 87 | 0.0 | 1.7 | 0.00 | 0.00 | 0.00 | 73 | 1018.0 | |
| 20260901150017 | 85 | 338 | 0.9 | 2.6 | 0.00 | 0.00 | 0.00 | 76 | 1018.1 |
| 20260901144517 | 83 | 338 | 0.9 | 4.3 | 0.00 | 0.00 | 0.00 | 80 | 1018.2 |
| 20260901143017 | 82 | 315 | 0.9 | 2.6 | 0.00 | 0.00 | 0.00 | 83 | 1018.1 |
| 20260901141517 | 81 | 0.0 | 2.6 | 0.00 | 0.00 | 0.00 | 85 | 1018.2 | |
| 20260901140017 | 80 | 338 | 0.9 | 3.5 | 0.00 | 0.00 | 0.00 | 86 | 1018.1 |
| 20260901134516 | 78 | 315 | 0.9 | 4.3 | 0.00 | 0.00 | 0.00 | 91 | 1018.1 |
| 20260901133016 | 77 | 315 | 0.9 | 3.5 | 0.00 | 0.00 | 0.00 | 95 | 1018.0 |
| 20260901131516 | 76 | 0.0 | 1.7 | 0.00 | 0.00 | 0.00 | 96 | 1018.1 | |
| 20260901130016 | 76 | 0.0 | 2.6 | 0.00 | 0.00 | 0.00 | 95 | 1018.3 | |
| 20260901124516 | 75 | 0.0 | 0.9 | 0.00 | 0.00 | 0.00 | 95 | 1018.2 | |
| 20260901123016 | 74 | 0.0 | 0.9 | 0.00 | 0.00 | 0.00 | 95 | 1018.3 | |
| 20260901121516 | 73 | 0.0 | 0.9 | 0.00 | 0.00 | 0.00 | 95 | 1018.3 | |
| 20260901120016 | 72 | 0.0 | 0.9 | 0.00 | 0.00 | 0.00 | 94 | 1018.3 | |
| 20260901114516 | 72 | 0.0 | 0.0 | 0.00 | 0.00 | 0.00 | 94 | 1018.2 | |
| 20260901113016 | 72 | 0.0 | 0.0 | 0.00 | 0.00 | 0.00 | 94 | 1018.1 | |
| 20260901111536 | 72 | 0.0 | 0.0 | 0.00 | 0.00 | 0.00 | 94 | 1017.9 | |
| 20260901110016 | 72 | 0.0 | 0.0 | 0.00 | 0.00 | 0.00 | 94 | 1017.9 | |
| 20260901104516 | 72 | 0.0 | 0.0 | 0.00 | 0.00 | 0.00 | 94 | 1017.6 | |
| 20260901103016 | 72 | 0.0 | 0.0 | 0.00 | 0.00 | 0.00 | 93 | 1017.5 | |
| 20260901101516 | 72 | 0.0 | 0.9 | 0.00 | 0.00 | 0.00 | 93 | 1017.5 | |
| 20260901100016 | 72 | 0.0 | 0.0 | 0.00 | 0.00 | 0.00 | 93 | 1017.7 | |
| 20260901094536 | 72 | 0.0 | 0.0 | 0.00 | 0.00 | 0.00 | 93 | 1017.6 | |
| 20260901093016 | 72 | 0.0 | 0.0 | 0.00 | 0.00 | 0.00 | 93 | 1017.5 | |
| 20260901091536 | 72 | 0.0 | 0.0 | 0.00 | 0.00 | 0.00 | 93 | 1017.5 | |
| 20260901090016 | 72 | 0.0 | 0.0 | 0.00 | 0.00 | 0.00 | 92 | 1017.6 | |
| 20260901084516 | 72 | 0.0 | 0.0 | 0.00 | 0.00 | 0.00 | 92 | 1017.6 | |
| 20260901083016 | 72 | 0.0 | 0.0 | 0.00 | 0.00 | 0.00 | 92 | 1017.7 | |
| 20260901081536 | 72 | 0.0 | 0.0 | 0.00 | 0.00 | 0.00 | 92 | 1017.7 | |
| 20260901080016 | 72 | 0.0 | 0.9 | 0.00 | 0.00 | 0.00 | 92 | 1017.7 |